Location: Ammerl�gen
(47.2167°N, 9.6000°E)
Time: 16:44:12
(UTC+00:00)

COSMOS 2455 - Pass Details

Date: 21 April 2021
Orbit: 902 x 907 km, 67.1° (Epoch: 07 May)

Event Time Altitude Azimuth Distance (km) Brightness Sun altitude
Exits shadow 21:23:13 - 223° (SW) 2,877 5.3 -25.1°
Reaches altitude 10° 21:24:01 10° 225° (SW) 2,583 5.1 -25.2°
Maximum altitude 21:29:58 65° 307° (NW) 992 3.1 -25.7°
Drops below altitude 10° 21:35:58 10° 29° (NNE) 2,600 5.6 -26.2°
Sets 21:38:31 0° 33° (NNE) 3,545 6.3 -26.4°
